Weather History for La Junta, CO

Change the Weather History Date:

Monday, November 19, 2012

  Actual Average Record
Temperature  
Mean Temperature 48 °F 39 °F  
Max Temperature 65 °F 54 °F 82 °F (2007)
Min Temperature 31 °F 25 °F 9 °F (1971)
Degree Days  
Heating Degree Days 17 26  
Month to date heating degree days 326 406  
Since 1 July heating degree days 723 828  
Cooling Degree Days 0 0  
Month to date cooling degree days 0 0  
Year to date cooling degree days 1733 1226  
Moisture  
Dew Point 20 °F    
Average Humidity 38    
Maximum Humidity 54    
Minimum Humidity 22    
Precipitation  
Precipitation 0.00 in 0.01 in 0.96 in (1953)
Month to date precipitation T 0.27  
Year to date precipitation 5.52 11.09  
Sea Level Pressure  
Sea Level Pressure 30.14 in    
Wind  
Wind Speed 8 mph (West)    
Max Wind Speed 20 mph    
Max Gust Speed 21 mph    
Visibility 10 miles    
Events      
T = Trace of Precipitation, MM = Missing Value Source: NWS Daily Summary

Daily Weather History Graph

Daily Weather History Graph

Search for Another Location

Airport:

Trip Planner

Search our weather history database for the weather conditions in past years. The results will help you decide how hot, cold, wet, or windy it might be!

Date:

Astronomy

Nov. 19, 2012 Rise Set
Actual Time 6:39 AM MST 4:39 PM MST
Civil Twilight 6:11 AM MST 5:07 PM MST
Nautical Twilight 5:39 AM MST 5:39 PM MST
Astronomical Twilight 5:07 AM MST 6:10 PM MST
Moon 11:46 AM MST (11/19) 11:06 PM MST (11/19)
Length of Visible Light 10h 56m
Length of Day
9h 59m
Waxing Crescent, 41% of the Moon is Illuminated
Nov 19
Waxing Crescent
Nov 20
First Quarter
Nov 28
Full
Dec 6
Last Quarter
Dec 13
New

Hourly Weather History & Observations

Time (MST) Temp. Windchill Dew Point Humidity Pressure Visibility Wind Dir Wind Speed Gust Speed Precip Events Conditions
12:53 AM 35.1 °F 26.9 °F 15.1 °F 44% 30.01 in 10.0 mi West 11.5 mph - N/A   Clear
1:53 AM 34.0 °F 23.8 °F 15.1 °F 46% 30.02 in 10.0 mi WNW 16.1 mph - N/A   Clear
2:53 AM 35.1 °F 25.2 °F 18.0 °F 50% 30.03 in 10.0 mi WNW 16.1 mph - N/A   Clear
3:53 AM 37.0 °F 28.1 °F 19.9 °F 50% 30.06 in 10.0 mi NW 15.0 mph - N/A   Clear
5:53 AM 35.1 °F 25.5 °F 19.0 °F 52% 30.11 in 10.0 mi West 15.0 mph - N/A   Clear
6:53 AM 32.0 °F 25.6 °F 18.0 °F 56% 30.18 in 10.0 mi WNW 6.9 mph - N/A   Clear
7:53 AM 39.0 °F 31.4 °F 19.0 °F 45% 30.18 in 10.0 mi West 12.7 mph - N/A   Clear
8:53 AM 48.0 °F - 19.9 °F 33% 30.18 in 10.0 mi West 10.4 mph - N/A   Clear
9:53 AM 55.9 °F - 24.1 °F 29% 30.19 in 10.0 mi Calm Calm - N/A   Clear
10:53 AM 57.9 °F - 24.1 °F 27% 30.18 in 10.0 mi Variable 3.5 mph - N/A   Clear
12:53 PM 64.0 °F - 24.1 °F 22% 30.13 in 10.0 mi ESE 6.9 mph - N/A   Clear
1:53 PM 64.0 °F - 25.0 °F 23% 30.13 in 10.0 mi ESE 6.9 mph - N/A   Clear
2:53 PM 63.0 °F - 24.1 °F 23% 30.13 in 10.0 mi ESE 4.6 mph - N/A   Clear
3:53 PM 61.0 °F - 24.1 °F 24% 30.14 in 10.0 mi Calm Calm - N/A   Clear
4:53 PM 55.9 °F - 23.0 °F 28% 30.16 in 10.0 mi East 5.8 mph - N/A   Clear
5:53 PM 55.0 °F - 23.0 °F 29% 30.18 in 10.0 mi Calm Calm - N/A   Clear
6:53 PM 52.0 °F - 23.0 °F 32% 30.19 in 10.0 mi ESE 3.5 mph - N/A   Clear
7:53 PM 50.0 °F - 21.9 °F 33% 30.18 in 10.0 mi ESE 4.6 mph - N/A   Clear
8:53 PM 37.9 °F 32.7 °F 19.9 °F 48% 30.19 in 10.0 mi NNW 6.9 mph - N/A   Clear
9:53 PM 39.9 °F - 19.9 °F 45% 30.17 in 10.0 mi Calm Calm - N/A   Clear
10:53 PM 42.1 °F 40.2 °F 15.1 °F 34% 30.15 in 10.0 mi SW 3.5 mph - N/A   Clear
11:53 PM 34.0 °F 25.5 °F 14.0 °F 44% 30.17 in 10.0 mi West 11.5 mph - N/A   Clear